[[{"header":{"parameterUnit":"m.s-1","parameterCategory":1,"la1":30.2992,"la2":30.254,"lo1":-89.0895,"lo2":-89.0443,"dy":0.0025,"dx":0.0025,"nx":19,"ny":19,"refTime":"2026-03-19T09:00:00:Z","depth":0,"parameterNumber":2,"parameterNumberName":"U-component_of_WINDS"},"data":[0,0,0,0.8684,0.8687,0.8842,0.8843,0.9021,0.9022,0,0,0,0,0,0,0,0,0,0,0,0.8627,0.8628,0.8684,0.8687,0.8842,0.8843,0.9021,0.9022,0,0,0,0,0,0,0,0,0,0,0,0.8626,0.8627,0.8628,0.8688,0.8842,0.8843,0.902,0.891,0,0,0,0,0,0,0,0,0,0,0.8764,0.87,0.8627,0.8628,0.8689,0.8841,0.8843,0.8906,0.8917,0.8943,0,0.8962,0,0.8995,0.9033,0.9034,0,0,0,0.8696,0.869,0.8742,0.8628,0.869,0.8841,0.8775,0.8912,0.8926,0.8958,0.8965,0.8972,0.8998,0.9034,0.9035,0.915,0.915,0,0,0.8687,0.8649,0.8732,0.875,0.8725,0.8769,0.8779,0.8921,0.8926,0.8965,0.8976,0.9001,0.9035,0.9036,0.915,0.915,0,0,0,0.8657,0.8642,0.8691,0.8742,0.8771,0.8774,0.8785,0.8919,0.8938,0.8979,0.9003,0.9036,0.9038,0.915,0.915,0.9118,0,0,0,0.8652,0.8625,0.8687,0.8665,0.8768,0.8847,0.878,0.8929,0.8946,0.9002,0.9036,0.904,0.915,0.915,0.9119,0.9109,0,0,0,0.8621,0.8621,0.8639,0.8662,0.8727,0.8846,0.8874,0.8933,0.896,0.9034,0.904,0.915,0.915,0.9119,0.9111,0.9128,0,0,0,0.8576,0.861,0.8638,0.8685,0.8726,0.8825,0.8873,0.8949,0.9008,0.9037,0.915,0.915,0.9119,0.9111,0.9128,0.9135,0.9134,0,0,0.8597,0.8611,0.8642,0.8672,0.8755,0.8804,0.8884,0.8975,0.9018,0.9103,0.9107,0.9118,0.9111,0.9128,0.9144,0.9142,0,0,0,0.8635,0.8657,0.8687,0.8741,0.8811,0.887,0.8954,0.8987,0.9061,0.9054,0.913,0.9127,0.9139,0.9144,0.9143,0.9155,0.9151,0.9151,0.9151,0.861,0.8662,0.8716,0.8786,0.8838,0.8922,0.8969,0.9028,0.9067,0.9084,0.9109,0.9113,0.9117,0.9117,0.9129,0.9117,0.9117,0.9117,0.9117,0.8645,0.8684,0.8732,0.8802,0.8856,0.8916,0.8998,0.9022,0.9085,0.9098,0.9111,0.912,0.9114,0.9127,0.9115,0.9116,0.9116,0.9116,0.9116,0.8634,0.8662,0.8701,0.8784,0.8841,0.8911,0.8968,0.9016,0.9062,0.9074,0.9106,0.9107,0.9113,0.9086,0.9086,0.9086,0.9086,0.9086,0.9086,0.8607,0.8653,0.8696,0.8771,0.8811,0.887,0.8953,0.8994,0.9052,0.9082,0.9082,0.9118,0.9104,0.9099,0.9086,0.9086,0.9086,0.9086,0.9086,0.8624,0.8627,0.8693,0.8733,0.8825,0.8877,0.8937,0.9016,0.9056,0.9083,0.9116,0.9097,0.9115,0.9116,0.9113,0.9104,0.9104,0.9104,0.9104,0.8614,0.8628,0.8705,0.8765,0.883,0.889,0.8961,0.9026,0.9093,0.9121,0.9129,0.9128,0.9127,0.9146,0.9147,0.9144,0.9144,0.9144,0.9144,0.8627,0.8649,0.8701,0.8766,0.8841,0.8904,0.8972,0.9039,0.9116,0.9147,0.9144,0.9142,0.9142,0.9139,0.917,0.9169,0.9165,0,0]},{"header":{"parameterUnit":"m.s-1","parameterCategory":1,"la1":30.2992,"la2":30.254,"lo1":-89.0895,"lo2":-89.0443,"dy":0.0025,"dx":0.0025,"nx":19,"ny":19,"refTime":"2026-03-19T09:00:00:Z","depth":0,"parameterNumber":3,"parameterNumberName":"V-component_of_WINDS"},"data":[0,0,0,3.1337,3.1336,3.1279,3.1279,3.1211,3.121,0,0,0,0,0,0,0,0,0,0,0,3.136,3.136,3.1337,3.1336,3.1279,3.1279,3.1211,3.121,0,0,0,0,0,0,0,0,0,0,0,3.136,3.136,3.1359,3.1335,3.1279,3.1279,3.1211,3.1251,0,0,0,0,0,0,0,0,0,0,3.1305,3.1333,3.136,3.1359,3.1335,3.1279,3.1278,3.1253,3.1249,3.1239,0,3.1236,0,3.1222,3.1206,3.1206,0,0,0,3.133,3.1337,3.1317,3.1359,3.1335,3.1279,3.1303,3.125,3.1246,3.1234,3.1235,3.1232,3.1221,3.1206,3.1205,3.118,3.118,0,0,3.1333,3.1352,3.132,3.1314,3.1327,3.1305,3.1301,3.1247,3.1249,3.1235,3.123,3.122,3.1205,3.1205,3.1179,3.118,0,0,0,3.1346,3.1355,3.1335,3.1317,3.1307,3.1303,3.1299,3.1251,3.1243,3.123,3.1219,3.1205,3.1204,3.1179,3.118,3.1207,0,0,0,3.1347,3.1362,3.1337,3.1348,3.1308,3.1279,3.1304,3.1247,3.124,3.122,3.1205,3.1204,3.1179,3.1179,3.1205,3.1215,0,0,0,3.1361,3.1364,3.1358,3.1349,3.1326,3.1279,3.1268,3.1245,3.1234,3.1206,3.1204,3.1179,3.1179,3.1204,3.1214,3.1214,0,0,0,3.138,3.1381,3.1359,3.1355,3.1326,3.1298,3.1268,3.1245,3.1224,3.1205,3.1179,3.118,3.1204,3.1213,3.1213,3.1218,3.1222,0,0,3.1392,3.1383,3.138,3.1358,3.1339,3.1305,3.1288,3.1249,3.1227,3.1196,3.1195,3.1206,3.1214,3.1214,3.1239,3.1243,0,0,0,3.1389,3.1387,3.1378,3.1361,3.1333,3.1309,3.1271,3.1256,3.123,3.1216,3.1206,3.121,3.1209,3.121,3.1213,3.121,3.1181,3.1181,3.1181,3.1432,3.1406,3.1398,3.1366,3.1349,3.1311,3.1293,3.1266,3.1244,3.1242,3.1232,3.1251,3.1253,3.1255,3.1253,3.1233,3.1233,3.1233,3.1233,3.1445,3.1437,3.1409,3.1391,3.1363,3.1346,3.1308,3.1293,3.1271,3.1256,3.1254,3.1239,3.126,3.1256,3.1235,3.1234,3.1234,3.1234,3.1234,3.1469,3.1461,3.1446,3.1418,3.1399,3.1365,3.1346,3.132,3.1295,3.1294,3.128,3.1279,3.1275,3.1289,3.1289,3.1289,3.1289,3.1289,3.129,3.15,3.1482,3.1471,3.1443,3.1428,3.1405,3.1367,3.135,3.1325,3.1307,3.1307,3.1283,3.1268,3.1264,3.129,3.129,3.129,3.129,3.129,3.1522,3.1513,3.1497,3.1483,3.1446,3.1428,3.1397,3.1366,3.1348,3.1339,3.1316,3.1309,3.1297,3.1294,3.1291,3.1323,3.1323,3.1323,3.1323,3.1541,3.1534,3.1511,3.149,3.1466,3.1436,3.1415,3.1384,3.135,3.1337,3.1329,3.1322,3.1321,3.1309,3.1306,3.1303,3.1337,3.1337,3.1337,3.1553,3.1542,3.1531,3.1501,3.1471,3.1444,3.1423,3.1397,3.1356,3.1337,3.1326,3.1325,3.1314,3.1312,3.1292,3.1288,3.128,0,0]}]]